{"data":{"norad_id":55341,"intl_designator":"2023-013L","name":"STARLINK-5670","alt_names":[],"object_type":"PAYLOAD","status":"ACTIVE","operator":null,"country":"US","launch_date":"2023-01-26","launch_site_code":"AFETR","launch_vehicle":null,"mission":null,"orbit_class":"UNKNOWN","rcs_meters":null,"size_class":null,"mass_kg":null,"dimensions":null,"purposes":["comms"],"wikipedia_slug":null,"has_3d_model":false,"image_url":null,"decayed_at":null,"tle_current":{"epoch":"2026-05-24T15:05:51.680832Z","epoch_age_seconds":110278,"freshness":"FRESH","line1":"1 55341U 23013L   26144.62907038 -.00000558  00000+0 -10762-4 0  9998","line2":"2 55341  43.0046 234.8639 0001629 275.5619  84.5047 15.27574718183282","mean_motion":15.27574718,"eccentricity":0.0001629,"inclination_deg":43.0046,"raan_deg":234.8639,"arg_perigee_deg":275.5619,"mean_anomaly_deg":84.5047,"bstar":-1.0762e-5,"rev_number":18328,"period_min":94.267074666262,"perigee_km":481.9472225019,"apogee_km":484.18260208493,"semimajor_km":6861.2019122934,"source":"CELESTRAK","updated_at":"2026-05-25T13:38:17.761783Z"}}}